Find Aerocube 8C

NORAD ID: 41853 Int'l Des: 2016-067 Owner: AERO Country: US operational
LEOCIRCULARRETROGRADE

Current View

Loading 3D Globe...

About Aerocube 8C

Description loading...

Upcoming Passes

Passes for default location (London). Set your location on the main map for personalized predictions.

Altitude History

Loading altitude history...

Two-Line Element Set

1 41853U 16067F 26149.60548614 .00009339 00000-0 38460-3 0 9995
2 41853 98.0580 15.6176 0006636 118.1281 242.0626 15.24343647523238
Epoch: May 29, 2026 • Age: 10 hours

Current Status

Altitude 492.7 km
Velocity 7.62 km/s
Sub-Earth Point 29.00°N, 56.65°W
Launch Date Nov 11, 2016
Age 9.5 years
Type other

Technical Details

Classification Payload
Mass 2.00 kg
Dry Mass 2.00 kg
Total Mass 2.00 kg
Length 0.20 m
Diameter 0.10 m
Span 0.20 m
Shape Box
Manufacturer AERO
Bus Type Cubesat 1.5U
Phase Status In Orbit
Owner/State AERO/US

Most Searched